Location: Clanezzo
(45.7500°N, 9.6000°E)
Time: 14:00:29
(UTC+00:00)

Meteor 1-10 Rocket - Pass Details

Date: 12 May 2021
Orbit: 837 x 909 km, 81.3° (Epoch: 19 June)

Event Time Altitude Azimuth Distance (km) Brightness Sun altitude
Exits shadow 20:59:37 19° 194° (SSW) 1,914 5.7 -18.6°
Maximum altitude 21:03:45 82° 281° (W) 866 4.2 -19.0°
Drops below altitude 10° 21:09:28 10° 9° (N) 2,512 7.3 -19.6°
Sets 21:11:56 0° 11° (N) 3,464 8.1 -19.8°
